1493838001.15,447,14.25,73906.8,0.57,-0.53,-0.53,0,*48
1493838002.3,448,14.19,73914.8,0.57,-0.45,-0.53,0,*40
1493838003.46,449,14.25,73922.0,0.57,-0.45,-0.53,0,*41
1493838004.61,450,14.19,73922.0,0.57,-0.53,-0.57,0,*4A
1493838005.77,451,14.25,73930.0,0.57,-0.53,-0.57,0,*4B
1493838006.92,452,14.25,73926.3,0.57,-0.45,-0.57,0,*4F
1493838008.11,453,14.25,73924.0,0.59,-0.49,-0.49,0,*43
1493838009.29,454,14.25,73928.5,0.59,-0.49,-0.41,0,*4C
1493838010.48,455,14.25,73926.5,0.59,-0.49,-0.49,0,*45
1493838011.66,456,14.25,73924.5,0.59,-0.49,-0.53,0,*4D
1493838012.83,457,14.25,73924.0,0.59,-0.49,-0.53,0,*4C
1493838013.99,458,14.25,73924.0,0.57,-0.45,-0.53,0,*41
1493838015.14,459,14.25,73928.3,0.57,-0.57,-0.53,0,*43
1493838016.3,460,14.25,73930.5,0.57,-0.57,-0.45,0,*4E
1493838017.49,461,14.25,73930.5,0.59,-0.49,-0.41,0,*4A
1493838018.67,462,14.25,73930.8,0.59,-0.49,-0.53,0,*4A
1493838019.85,463,14.25,73930.0,0.59,-0.49,-0.49,0,*40
1493838021.03,464,14.19,73930.3,0.59,-0.49,-0.49,0,*47
1493838022.22,465,14.19,73924.5,0.59,-0.49,-0.49,0,*46
1493838023.37,466,14.25,73922.5,0.57,-0.45,-0.45,0,*4B
1493838024.55,467,14.25,73924.3,0.59,-0.53,-0.53,0,*44
1493838025.74,468,14.25,73932.0,0.59,-0.53,-0.53,0,*4B
1493838026.92,469,14.19,73934.8,0.59,-0.53,-0.53,0,*4A
1493838028.1,470,14.25,73934.3,0.59,-0.53,-0.49,0,*49
1493838029.3,471,14.25,73930.0,0.59,-0.41,-0.41,0,*43
1493838030.48,472,14.25,73930.8,0.59,-0.49,-0.41,0,*48
1493838031.68,473,14.25,73932.5,0.59,-0.41,-0.41,0,*41
1493838032.83,474,14.25,73922.8,0.57,-0.53,-0.45,0,*4F
1493838034.02,475,14.25,73922.8,0.59,-0.49,-0.41,0,*4F
1493838035.21,476,14.19,73922.5,0.59,-0.41,-0.41,0,*44
1493838036.37,477,14.19,73928.8,0.57,-0.45,-0.45,0,*4B
1493838037.56,478,14.25,73936.5,0.59,-0.41,-0.41,0,*4A
1493838038.75,479,14.25,73936.8,0.59,-0.41,-0.41,0,*4B
1493838039.95,480,14.25,73936.8,0.59,-0.41,-0.41,0,*4D
1493838041.13,481,14.25,73936.8,0.59,-0.49,-0.37,0,*45
1493838042.32,482,14.25,73938.5,0.59,-0.41,-0.41,0,*4F
1493838043.52,483,14.25,73936.5,0.59,-0.41,-0.41,0,*4E
1493838044.7,484,14.25,73936.3,0.59,-0.41,-0.29,0,*47
1493838045.89,485,14.19,73932.8,0.59,-0.41,-0.41,0,*48
1493838047.09,486,14.25,73934.3,0.59,-0.41,-0.41,0,*4B
1493838048.27,487,14.25,73938.0,0.59,-0.49,-0.41,0,*42
1493838049.45,488,14.25,73936.3,0.59,-0.61,-0.49,0,*4F
1493838050.62,489,14.25,73942.0,0.61,-0.57,-0.49,0,*40
1493838051.81,490,14.25,73948.3,0.59,-0.41,-0.49,0,*44
1493838053.0,491,14.25,73942.3,0.59,-0.41,-0.41,0,*4D
1493838054.19,492,14.19,73942.0,0.59,-0.37,-0.37,0,*4E
1493838055.36,493,14.25,73942.8,0.59,-0.49,-0.45,0,*43
1493838056.55,494,14.25,73938.5,0.59,-0.41,-0.49,0,*40
1493838057.75,495,14.19,73930.8,0.59,-0.41,-0.41,0,*49
1493838058.93,496,14.19,73938.0,0.59,-0.53,-0.49,0,*41
1493838060.12,497,14.25,73938.0,0.59,-0.53,-0.49,0,*40
1493838061.31,498,14.25,73930.5,0.59,-0.53,-0.49,0,*4F
1493838062.49,499,14.25,73926.8,0.59,-0.53,-0.49,0,*4E
1493838063.65,500,14.25,73930.0,0.61,-0.57,-0.45,0,*4C
1493838064.84,501,14.25,73926.5,0.59,-0.49,-0.49,0,*45
1493838066.02,502,14.19,73920.0,0.59,-0.53,-0.49,0,*4D
1493838067.18,503,14.25,73920.3,0.61,-0.49,-0.45,0,*40
1493838068.34,504,14.25,73920.3,0.61,-0.37,-0.45,0,*4E
1493838069.53,505,14.25,73930.8,0.59,-0.53,-0.41,0,*42
1493838070.7,506,14.19,73928.8,0.61,-0.41,-0.41,0,*49
1493838071.86,507,14.19,73936.3,0.61,-0.49,-0.41,0,*40
1493838073.04,508,14.25,73932.5,0.59,-0.49,-0.61,0,*46
1493838074.22,509,14.25,73934.0,0.59,-0.49,-0.49,0,*4D
1493838075.4,510,14.19,73928.0,0.59,-0.49,-0.49,0,*45
1493838076.59,511,14.19,73922.0,0.59,-0.49,-0.49,0,*44
1493838077.75,512,14.25,73922.5,0.61,-0.37,-0.45,0,*49
1493838078.93,513,14.19,73920.8,0.59,-0.49,-0.49,0,*46
1493838080.11,514,14.19,73918.0,0.59,-0.49,-0.41,0,*49
1493838081.3,515,14.19,73922.5,0.59,-0.49,-0.49,0,*40
1493838082.49,516,14.25,73928.8,0.59,-0.41,-0.41,0,*43
1493838083.68,517,14.19,73930.3,0.59,-0.41,-0.41,0,*42
1493838084.87,518,14.19,73926.8,0.59,-0.49,-0.37,0,*44
1493838086.06,519,14.25,73928.5,0.59,-0.41,-0.37,0,*4D
1493838087.25,520,14.25,73934.3,0.59,-0.41,-0.41,0,*46
1493838088.44,521,14.19,73932.0,0.59,-0.49,-0.41,0,*4F
1493838089.62,522,14.25,73930.5,0.59,-0.49,-0.41,0,*4C
1493838090.82,523,14.25,73938.0,0.59,-0.41,-0.41,0,*45
1493838092.01,524,14.25,73932.5,0.59,-0.41,-0.49,0,*4A
1493838093.2,525,14.19,73932.8,0.59,-0.41,-0.41,0,*43
1493838094.36,526,14.25,73934.3,0.61,-0.33,-0.33,0,*4B
1493838095.52,527,14.19,73932.5,0.61,-0.33,-0.37,0,*4E
1493838096.71,528,14.25,73936.0,0.59,-0.37,-0.41,0,*4F
1493838097.89,529,14.19,73936.0,0.59,-0.37,-0.41,0,*4E
1493838099.06,530,14.25,73936.5,0.61,-0.33,-0.37,0,*48
1493838100.24,531,14.25,73938.0,0.59,-0.37,-0.41,0,*47
1493838101.43,532,14.25,73932.0,0.59,-0.37,-0.49,0,*4C
1493838102.62,533,14.25,73930.0,0.59,-0.37,-0.41,0,*45
1493838103.8,534,14.25,73940.8,0.59,-0.49,-0.37,0,*4A
1493838104.99,535,14.25,73938.5,0.59,-0.41,-0.37,0,*43
1493838106.16,536,14.25,73932.5,0.61,-0.37,-0.37,0,*4A
1493838107.34,537,14.25,73938.0,0.59,-0.49,-0.41,0,*48
1493838108.53,538,14.25,73932.8,0.59,-0.41,-0.49,0,*47
1493838109.72,539,14.25,73930.3,0.59,-0.41,-0.41,0,*4E
1493838110.88,540,14.19,73932.8,0.61,-0.33,-0.37,0,*4F
1493838112.05,541,14.19,73932.8,0.61,-0.37,-0.37,0,*4A
1493838113.23,542,14.19,73934.5,0.59,-0.49,-0.41,0,*4A
1493838114.42,543,14.25,73934.3,0.59,-0.41,-0.49,0,*4B
1493838115.59,544,14.25,73936.5,0.61,-0.37,-0.37,0,*4F
1493838116.77,545,14.25,73934.8,0.59,-0.49,-0.49,0,*45
1493838117.95,546,14.19,73934.8,0.59,-0.49,-0.49,0,*46
1493838119.14,547,14.25,73930.0,0.59,-0.49,-0.41,0,*4F
1493838120.33,548,14.19,73932.0,0.59,-0.41,-0.41,0,*48
1493838121.53,549,14.19,73926.3,0.59,-0.41,-0.41,0,*49
1493838122.68,550,14.25,73934.5,0.61,-0.37,-0.45,0,*4F
1493838123.87,551,14.25,73934.5,0.59,-0.41,-0.37,0,*41
1493838125.06,552,14.25,73926.8,0.59,-0.37,-0.49,0,*4A
1493838126.22,553,14.19,73926.8,0.61,-0.37,-0.37,0,*49
1493838127.38,554,14.25,73924.8,0.61,-0.33,-0.37,0,*4A
1493838128.57,555,14.19,73928.5,0.59,-0.37,-0.41,0,*45
1493838129.76,556,14.25,73932.0,0.59,-0.41,-0.41,0,*47
1493838130.93,557,14.25,73928.5,0.61,-0.37,-0.37,0,*4D
1493838132.09,558,14.25,73926.8,0.61,-0.37,-0.33,0,*46
1493838133.27,559,14.19,73926.5,0.59,-0.37,-0.37,0,*48
1493838134.47,560,14.25,73934.8,0.59,-0.41,-0.37,0,*43
1493838135.63,561,14.25,73934.0,0.61,-0.37,-0.33,0,*4C
1493838136.81,562,14.25,73936.3,0.59,-0.37,-0.37,0,*40
1493838137.97,563,14.25,73940.3,0.61,-0.33,-0.29,0,*41
1493838139.15,564,14.25,73940.5,0.59,-0.37,-0.33,0,*42
1493838140.32,565,14.25,73938.8,0.61,-0.37,-0.41,0,*4D
1493838141.48,566,14.19,73938.3,0.61,-0.37,-0.33,0,*4B
1493838142.67,567,14.25,73934.5,0.59,-0.41,-0.41,0,*45
1493838143.87,568,14.19,73928.0,0.59,-0.41,-0.41,0,*4A
1493838145.06,569,14.25,73936.0,0.59,-0.41,-0.41,0,*4B
1493838146.22,570,14.25,73940.5,0.61,-0.49,-0.37,0,*41
1493838147.41,571,14.25,73934.8,0.59,-0.41,-0.37,0,*43
1493838148.59,572,14.25,73932.3,0.59,-0.37,-0.37,0,*41
1493838149.78,573,14.25,73936.0,0.59,-0.37,-0.37,0,*40
1493838150.94,574,14.25,73934.8,0.61,-0.37,-0.37,0,*4C
1493838152.1,575,14.25,73930.5,0.61,-0.33,-0.37,0,*49
1493838153.26,576,14.25,73930.3,0.61,-0.45,-0.45,0,*4E
1493838154.45,577,14.25,73930.0,0.59,-0.41,-0.41,0,*44
1493838155.64,578,14.25,73928.0,0.59,-0.41,-0.49,0,*43
1493838156.84,579,14.25,73934.0,0.59,-0.41,-0.41,0,*4A
1493838158.02,580,14.25,73920.3,0.59,-0.49,-0.41,0,*44
1493838159.18,581,14.25,73920.5,0.61,-0.37,-0.45,0,*43
1493838160.37,582,14.25,73926.3,0.59,-0.49,-0.41,0,*46
1493838161.55,583,14.25,73920.5,0.59,-0.49,-0.49,0,*4F
1493838162.71,584,14.25,73916.0,0.61,-0.37,-0.45,0,*46
1493838163.87,585,14.25,73928.8,0.61,-0.37,-0.45,0,*47
1493838165.06,586,14.25,73924.8,0.59,-0.49,-0.41,0,*42
1493838166.22,587,14.25,73936.0,0.61,-0.45,-0.37,0,*45
1493838167.38,588,14.25,73928.8,0.61,-0.45,-0.37,0,*4A
1493838168.57,589,14.19,73926.3,0.59,-0.41,-0.49,0,*4D
1493838169.76,590,14.19,73932.8,0.59,-0.49,-0.41,0,*45
1493838170.92,591,14.25,73934.0,0.61,-0.45,-0.37,0,*42
1493838172.08,592,14.25,73936.5,0.61,-0.37,-0.45,0,*41
1493838173.24,593,14.25,73940.3,0.61,-0.37,-0.45,0,*40
1493838174.43,594,14.25,73932.5,0.59,-0.41,-0.49,0,*41
1493838175.62,595,14.25,73936.8,0.59,-0.49,-0.41,0,*40
1493838176.78,596,14.25,73936.0,0.61,-0.37,-0.45,0,*45
1493838177.94,597,14.25,73936.0,0.61,-0.37,-0.33,0,*45
1493838179.13,598,14.19,73934.8,0.59,-0.41,-0.37,0,*44
1493838180.32,599,14.19,73934.0,0.59,-0.41,-0.49,0,*4C
1493838181.5,600,14.25,73934.0,0.59,-0.49,-0.49,0,*47
1493838182.66,601,14.25,73938.0,0.61,-0.37,-0.45,0,*48
1493838183.82,602,14.25,73934.8,0.61,-0.45,-0.45,0,*4E
1493838185.01,603,14.25,73936.8,0.59,-0.41,-0.49,0,*4C
1493838186.17,604,14.19,73932.8,0.61,-0.45,-0.45,0,*48
1493838187.36,605,14.19,73932.5,0.59,-0.41,-0.41,0,*42
1493838188.55,606,14.19,73932.0,0.59,-0.53,-0.49,0,*4A
1493838189.7,607,14.25,73928.5,0.61,-0.49,-0.49,0,*4B
1493838190.86,608,14.25,73930.3,0.61,-0.49,-0.49,0,*44
1493838192.04,609,14.19,73922.8,0.59,-0.53,-0.61,0,*4F
1493838193.2,610,14.25,73926.8,0.61,-0.57,-0.57,0,*4D
1493838194.38,611,14.19,73914.3,0.59,-0.61,-0.53,0,*46
1493838195.54,612,14.25,73918.8,0.61,-0.57,-0.49,0,*40
1493838196.7,613,14.25,73910.0,0.61,-0.57,-0.49,0,*41
1493838197.86,614,14.19,73914.3,0.61,-0.57,-0.57,0,*49
1493838199.01,615,14.25,73918.0,0.61,-0.61,-0.61,0,*48
1493838200.17,616,14.19,73912.5,0.61,-0.49,-0.57,0,*44
1493838201.34,617,14.25,73922.8,0.59,-0.61,-0.61,0,*41
1493838202.5,618,14.19,73920.0,0.61,-0.57,-0.45,0,*46
1493838203.66,619,14.25,73920.3,0.61,-0.49,-0.57,0,*4B
1493838204.81,620,14.19,73916.8,0.61,-0.49,-0.49,0,*4E
1493838205.97,621,14.25,73922.3,0.61,-0.53,-0.61,0,*4E
1493838207.16,622,14.19,73922.3,0.59,-0.57,-0.49,0,*48
1493838208.31,623,14.25,73920.3,0.61,-0.49,-0.57,0,*42
1493838209.46,624,14.19,73908.3,0.61,-0.49,-0.61,0,*40
1493838210.64,625,14.25,73922.3,0.59,-0.61,-0.61,0,*40
1493838211.8,626,14.25,73920.3,0.61,-0.49,-0.49,0,*48
1493838212.95,627,14.25,73916.5,0.61,-0.49,-0.57,0,*46
1493838214.11,628,14.25,73920.3,0.61,-0.57,-0.49,0,*49
1493838215.28,629,14.19,73918.5,0.61,-0.57,-0.49,0,*48
1493838216.44,630,14.25,73920.0,0.61,-0.49,-0.49,0,*4F
1493838217.6,631,14.25,73922.8,0.61,-0.57,-0.49,0,*41
1493838218.76,632,14.25,73924.5,0.61,-0.57,-0.57,0,*4D
1493838219.92,633,14.25,73922.5,0.61,-0.49,-0.49,0,*4C
1493838221.08,634,14.19,73918.8,0.61,-0.49,-0.49,0,*4B
1493838222.26,635,14.25,73924.0,0.59,-0.53,-0.53,0,*41
1493838223.42,636,14.19,73926.0,0.61,-0.49,-0.49,0,*49
1493838224.58,637,14.25,73918.8,0.61,-0.49,-0.49,0,*48
1493838225.74,638,14.25,73922.3,0.61,-0.49,-0.49,0,*47
1493838226.92,639,14.25,73920.0,0.59,-0.57,-0.57,0,*4D
1493838228.11,640,14.19,73918.0,0.59,-0.49,-0.49,0,*43
1493838229.26,641,14.19,73918.0,0.61,-0.53,-0.61,0,*48
1493838230.42,642,14.25,73920.8,0.61,-0.49,-0.57,0,*45
1493838231.57,643,14.19,73916.5,0.61,-0.49,-0.57,0,*44
1493838232.73,644,14.25,73920.0,0.61,-0.49,-0.49,0,*4C
1493838233.91,645,14.25,73920.0,0.59,-0.61,-0.53,0,*47
1493838235.07,646,14.19,73920.3,0.61,-0.49,-0.49,0,*4E
1493838236.23,647,14.25,73910.3,0.61,-0.57,-0.49,0,*40
1493838237.39,648,14.25,73918.8,0.61,-0.57,-0.49,0,*4F
1493838238.55,649,14.25,73910.3,0.61,-0.57,-0.45,0,*42
1493838239.74,650,14.19,73906.0,0.59,-0.53,-0.49,0,*49
1493838240.9,651,14.25,73914.3,0.61,-0.57,-0.57,0,*48
1493838242.06,652,14.19,73912.3,0.61,-0.57,-0.49,0,*44
1493838243.22,653,14.25,73916.3,0.61,-0.49,-0.49,0,*4A
1493838244.38,654,14.19,73908.8,0.61,-0.57,-0.57,0,*4D
1493838245.54,655,14.19,73924.5,0.61,-0.49,-0.57,0,*43
1493838246.69,656,14.19,73920.8,0.61,-0.49,-0.45,0,*43
1493838247.86,657,14.25,73914.8,0.61,-0.57,-0.49,0,*41
1493838249.02,658,14.19,73922.5,0.61,-0.57,-0.49,0,*4E
1493838250.18,659,14.19,73930.3,0.61,-0.45,-0.49,0,*4C
1493838251.35,660,14.19,73924.8,0.61,-0.57,-0.49,0,*45
1493838252.5,661,14.19,73926.3,0.61,-0.49,-0.45,0,*47
1493838253.66,662,14.25,73924.0,0.61,-0.45,-0.37,0,*4D
1493838254.82,663,14.19,73918.0,0.61,-0.45,-0.45,0,*49
1493838255.98,664,14.25,73924.8,0.61,-0.57,-0.45,0,*4D
1493838257.14,665,14.25,73924.0,0.61,-0.49,-0.45,0,*43
1493838258.3,666,14.25,73914.0,0.61,-0.45,-0.37,0,*49
1493838259.46,667,14.25,73906.8,0.61,-0.45,-0.37,0,*48
1493838260.62,668,14.25,73902.8,0.61,-0.45,-0.45,0,*42
1493838261.78,669,14.19,73898.5,0.61,-0.45,-0.45,0,*43
1493838262.94,670,14.25,73910.5,0.61,-0.45,-0.49,0,*47
1493838264.1,671,14.25,73910.5,0.61,-0.49,-0.45,0,*46
1493838265.26,672,14.19,73908.0,0.61,-0.49,-0.45,0,*45
1493838266.41,673,14.19,73918.0,0.61,-0.49,-0.45,0,*44
1493838267.58,674,14.25,73918.0,0.61,-0.57,-0.49,0,*40
1493838268.73,675,14.19,73914.0,0.61,-0.49,-0.57,0,*41
1493838269.88,676,14.25,73908.3,0.61,-0.61,-0.57,0,*48
1493838271.05,677,14.19,73908.5,0.61,-0.57,-0.49,0,*43
1493838272.2,678,14.25,73910.3,0.61,-0.49,-0.49,0,*43
1493838273.37,679,14.19,73914.5,0.61,-0.57,-0.49,0,*4D
1493838274.53,680,14.19,73914.3,0.61,-0.49,-0.49,0,*44
1493838275.71,681,14.19,73916.0,0.59,-0.53,-0.49,0,*45
1493838276.87,682,14.19,73914.3,0.61,-0.49,-0.45,0,*4A
1493838278.03,683,14.19,73918.8,0.61,-0.57,-0.49,0,*48
1493838279.2,684,14.19,73918.3,0.61,-0.57,-0.49,0,*4F
1493838280.37,685,14.25,73920.8,0.59,-0.61,-0.53,0,*4B
1493838281.53,686,14.19,73916.3,0.61,-0.57,-0.57,0,*42
1493838282.69,687,14.19,73914.3,0.61,-0.57,-0.49,0,*4C
1493838283.88,688,14.25,73918.3,0.59,-0.61,-0.49,0,*4D
1493838285.06,689,14.25,73912.0,0.59,-0.49,-0.49,0,*46
1493838286.22,690,14.25,73920.5,0.61,-0.57,-0.45,0,*46
1493838287.39,691,14.25,73926.0,0.59,-0.61,-0.61,0,*4F
1493838288.55,692,14.25,73922.5,0.61,-0.49,-0.49,0,*47
1493838289.7,693,14.25,73918.3,0.61,-0.61,-0.57,0,*43
1493838290.88,694,14.19,73920.3,0.59,-0.65,-0.61,0,*4E
1493838292.03,695,14.25,73922.3,0.61,-0.61,-0.57,0,*45
1493838293.19,696,14.19,73922.8,0.61,-0.61,-0.57,0,*46
1493838294.34,697,14.25,73928.8,0.61,-0.53,-0.53,0,*42
1493838295.51,698,14.19,73916.5,0.61,-0.57,-0.49,0,*42
1493838296.66,699,14.25,73912.0,0.61,-0.61,-0.57,0,*49
1493838297.82,700,14.25,73922.0,0.61,-0.57,-0.57,0,*4D
1493838298.97,701,14.25,73918.0,0.61,-0.57,-0.61,0,*49
1493838300.13,702,14.19,73922.8,0.61,-0.69,-0.61,0,*47
1493838301.29,703,14.25,73932.0,0.61,-0.73,-0.69,0,*45
1493838302.45,704,14.25,73920.8,0.61,-0.69,-0.69,0,*49
1493838303.61,705,14.25,73914.5,0.61,-0.73,-0.61,0,*4B
1493838304.77,706,14.19,73912.3,0.61,-0.69,-0.61,0,*43
1493838305.92,707,14.25,73910.8,0.61,-0.69,-0.61,0,*42
1493838307.08,708,14.25,73908.8,0.61,-0.61,-0.57,0,*40
1493838308.23,709,14.19,73912.3,0.61,-0.61,-0.49,0,*4E
1493838309.39,710,14.25,73916.3,0.61,-0.69,-0.57,0,*41
1493838310.55,711,14.19,73912.3,0.61,-0.69,-0.57,0,*40
1493838311.7,712,14.19,73914.5,0.61,-0.61,-0.57,0,*4B
1493838312.86,713,14.25,73920.8,0.61,-0.61,-0.57,0,*4A
1493838314.03,714,14.19,73916.5,0.59,-0.61,-0.65,0,*47
1493838315.2,715,14.25,73916.5,0.59,-0.61,-0.65,0,*46
1493838316.38,716,14.19,73910.5,0.63,-0.57,-0.61,0,*4D
1493838317.54,717,14.25,73918.3,0.61,-0.57,-0.57,0,*4B
1493838318.69,718,14.25,73916.8,0.61,-0.61,-0.57,0,*41
1493838319.87,719,14.19,73916.5,0.59,-0.65,-0.61,0,*4A
1493838321.02,720,14.25,73916.5,0.61,-0.61,-0.61,0,*4F
1493838322.17,721,14.19,73908.5,0.61,-0.57,-0.61,0,*4B
1493838323.33,722,14.19,73902.0,0.61,-0.49,-0.57,0,*42
1493838324.49,723,14.25,73912.5,0.61,-0.57,-0.49,0,*43
1493838325.65,724,14.25,73916.3,0.61,-0.57,-0.57,0,*4B
1493838326.81,725,14.25,73912.3,0.61,-0.61,-0.53,0,*4B
1493838327.97,726,14.25,73926.0,0.61,-0.49,-0.49,0,*49
1493838329.12,727,14.19,73912.8,0.61,-0.45,-0.57,0,*4B
1493838330.28,728,14.19,73912.8,0.61,-0.45,-0.57,0,*44
1493838331.44,729,14.25,73914.0,0.61,-0.45,-0.49,0,*4A
1493838332.6,730,14.19,73916.8,0.61,-0.45,-0.45,0,*4E
1493838333.76,731,14.25,73910.0,0.61,-0.45,-0.37,0,*4A
1493838334.92,732,14.19,73910.0,0.61,-0.49,-0.49,0,*4C
1493838336.09,733,14.19,73916.8,0.61,-0.45,-0.37,0,*48
1493838337.25,734,14.19,73916.0,0.61,-0.45,-0.45,0,*4A
1493838338.4,735,14.25,73920.3,0.61,-0.45,-0.45,0,*4B
1493838339.56,736,14.19,73922.0,0.61,-0.49,-0.45,0,*44
1493838340.72,737,14.25,73920.5,0.61,-0.49,-0.37,0,*40
1493838341.88,738,14.25,73920.3,0.61,-0.45,-0.45,0,*46
1493838343.04,739,14.25,73918.0,0.61,-0.45,-0.37,0,*42
1493838344.2,740,14.19,73920.8,0.61,-0.45,-0.49,0,*45
1493838345.36,741,14.19,73920.3,0.61,-0.37,-0.45,0,*4D
1493838346.52,742,14.19,73920.0,0.61,-0.45,-0.45,0,*4B
1493838347.68,743,14.25,73916.3,0.61,-0.45,-0.45,0,*4A
1493838348.84,744,14.19,73914.5,0.61,-0.45,-0.45,0,*4D
1493838350.0,745,14.19,73918.5,0.61,-0.49,-0.45,0,*40
1493838351.16,746,14.19,73916.3,0.61,-0.53,-0.49,0,*44
1493838352.32,747,14.19,73920.3,0.61,-0.49,-0.49,0,*4E
1493838353.5,748,14.25,73916.0,0.59,-0.49,-0.53,0,*41
1493838354.66,749,14.19,73918.0,0.61,-0.45,-0.49,0,*4C
1493838355.82,750,14.19,73920.8,0.61,-0.49,-0.49,0,*48
1493838356.98,751,14.19,73924.5,0.61,-0.49,-0.49,0,*49
1493838358.14,752,14.19,73920.8,0.61,-0.45,-0.49,0,*46
1493838359.32,753,14.19,73918.8,0.59,-0.49,-0.49,0,*40
1493838360.48,754,14.25,73926.3,0.61,-0.45,-0.57,0,*4F
1493838361.64,755,14.19,73912.8,0.61,-0.49,-0.45,0,*41
1493838362.82,756,14.25,73920.3,0.59,-0.53,-0.53,0,*45
1493838363.98,757,14.25,73912.8,0.61,-0.49,-0.49,0,*4F
1493838365.14,758,14.25,73926.0,0.61,-0.49,-0.57,0,*4F
1493838366.3,759,14.19,73916.0,0.61,-0.49,-0.49,0,*41
1493838367.46,760,14.19,73920.3,0.61,-0.45,-0.49,0,*47
1493838368.64,761,14.25,73918.0,0.59,-0.41,-0.61,0,*43
1493838369.8,762,14.25,73922.0,0.61,-0.45,-0.49,0,*45
1493838370.96,763,14.25,73918.8,0.61,-0.45,-0.49,0,*44
1493838372.12,764,14.25,73924.3,0.61,-0.45,-0.49,0,*43
1493838373.29,765,14.19,73924.3,0.61,-0.45,-0.49,0,*42
1493838374.44,766,14.25,73924.0,0.61,-0.45,-0.57,0,*4E
1493838375.61,767,14.19,73924.0,0.61,-0.37,-0.49,0,*45
1493838376.77,768,14.19,73922.3,0.61,-0.45,-0.49,0,*4F
1493838377.93,769,14.19,73916.3,0.61,-0.45,-0.49,0,*4E
1493838379.09,770,14.19,73924.0,0.61,-0.45,-0.49,0,*46
1493838380.25,771,14.19,73920.5,0.61,-0.45,-0.49,0,*47
1493838381.44,772,14.19,73918.5,0.59,-0.41,-0.49,0,*4B
1493838382.63,773,14.19,73922.3,0.59,-0.49,-0.49,0,*42
1493838383.79,774,14.25,73922.3,0.61,-0.37,-0.45,0,*4B
1493838384.97,775,14.25,73924.0,0.59,-0.53,-0.49,0,*4F
1493838386.16,776,14.19,73924.3,0.63,-0.45,-0.45,0,*4E
1493838387.34,777,14.25,73926.8,0.63,-0.37,-0.45,0,*4A
1493838388.5,778,14.19,73926.3,0.61,-0.37,-0.45,0,*47
1493838389.66,779,14.25,73928.0,0.61,-0.37,-0.49,0,*4A
1493838390.82,780,14.25,73932.0,0.61,-0.37,-0.49,0,*4C
1493838392.01,781,14.19,73934.0,0.59,-0.49,-0.41,0,*47
1493838393.17,782,14.25,73934.3,0.61,-0.37,-0.45,0,*42
1493838394.33,783,14.19,73930.8,0.61,-0.37,-0.37,0,*46
1493838395.49,784,14.25,73930.3,0.61,-0.33,-0.37,0,*45
1493838396.65,785,14.25,73928.8,0.61,-0.37,-0.45,0,*45
1493838397.81,786,14.19,73928.3,0.61,-0.37,-0.37,0,*43
1493838398.98,787,14.25,73924.3,0.61,-0.37,-0.37,0,*42
1493838400.16,788,14.19,73920.0,0.61,-0.27,-0.37,0,*4C
1493838401.35,789,14.19,73918.8,0.61,-0.27,-0.33,0,*49
1493838402.53,790,14.25,73926.0,0.61,-0.27,-0.33,0,*41
1493838403.69,791,14.19,73920.0,0.61,-0.33,-0.33,0,*45
1493838404.85,792,14.25,73922.0,0.61,-0.33,-0.37,0,*42
1493838406.01,793,14.25,73922.5,0.61,-0.45,-0.37,0,*42
1493838407.17,794,14.19,73918.3,0.61,-0.45,-0.45,0,*40
1493838408.33,795,14.25,73914.8,0.61,-0.45,-0.45,0,*41
1493838409.49,796,14.19,73914.8,0.61,-0.45,-0.37,0,*47
1493838410.66,797,14.25,73916.5,0.61,-0.37,-0.37,0,*43
1493838411.81,798,14.19,73916.5,0.61,-0.45,-0.45,0,*4C
1493838412.97,799,14.25,73918.5,0.61,-0.45,-0.45,0,*4D
1493838414.16,800,14.19,73910.5,0.63,-0.45,-0.37,0,*45
1493838415.34,801,14.19,73908.8,0.63,-0.45,-0.45,0,*41
1493838416.52,802,14.19,73914.5,0.63,-0.45,-0.45,0,*42
1493838417.68,803,14.19,73912.8,0.61,-0.45,-0.45,0,*41
1493838418.85,804,14.19,73918.0,0.61,-0.45,-0.37,0,*43
1493838420.0,805,14.25,73914.8,0.61,-0.45,-0.45,0,*47
1493838421.16,806,14.25,73910.5,0.61,-0.37,-0.45,0,*41
1493838422.33,807,14.19,73912.0,0.61,-0.37,-0.37,0,*45
1493838423.49,808,14.19,73914.0,0.61,-0.37,-0.45,0,*4F
1493838424.67,809,14.25,73918.3,0.59,-0.49,-0.41,0,*48
1493838425.83,810,14.19,73912.5,0.61,-0.45,-0.45,0,*43
1493838426.99,811,14.19,73918.5,0.61,-0.45,-0.45,0,*42
1493838428.15,812,14.19,73920.3,0.61,-0.37,-0.45,0,*44
1493838429.34,813,14.19,73916.8,0.63,-0.45,-0.37,0,*47
1493838430.52,814,14.25,73918.3,0.63,-0.45,-0.45,0,*45
1493838431.7,815,14.25,73914.5,0.63,-0.49,-0.37,0,*4D
1493838432.89,816,14.19,73906.8,0.63,-0.37,-0.37,0,*47
1493838434.08,817,14.19,73908.8,0.63,-0.45,-0.37,0,*43
1493838435.24,818,14.19,73908.0,0.61,-0.45,-0.33,0,*4A
1493838436.4,819,14.19,73912.5,0.61,-0.45,-0.37,0,*4F
1493838437.56,820,14.19,73906.0,0.61,-0.45,-0.37,0,*45
1493838438.72,821,14.19,73914.5,0.61,-0.45,-0.37,0,*44
1493838439.89,822,14.19,73916.8,0.61,-0.37,-0.37,0,*42
1493838441.07,823,14.19,73930.8,0.63,-0.45,-0.37,0,*44
1493838442.26,824,14.25,73928.0,0.63,-0.37,-0.37,0,*46
1493838443.45,825,14.19,73926.8,0.63,-0.45,-0.37,0,*42
1493838444.61,826,14.19,73936.0,0.61,-0.37,-0.37,0,*46
1493838445.77,827,14.19,73934.3,0.61,-0.37,-0.37,0,*47
1493838446.93,828,14.19,73934.0,0.61,-0.37,-0.33,0,*4C
1493838448.12,829,14.19,73928.0,0.63,-0.37,-0.37,0,*4B
1493838449.3,830,14.19,73924.3,0.63,-0.45,-0.33,0,*42
1493838450.49,831,14.19,73930.5,0.63,-0.37,-0.37,0,*42
1493838451.68,832,14.19,73928.8,0.63,-0.45,-0.33,0,*40
1493838452.84,833,14.19,73938.3,0.61,-0.45,-0.33,0,*43
1493838454.0,834,14.19,73932.8,0.61,-0.45,-0.33,0,*44
1493838455.18,835,14.19,73940.0,0.63,-0.41,-0.29,0,*48
1493838456.35,836,14.19,73946.3,0.61,-0.45,-0.37,0,*42
1493838457.51,837,14.19,73944.0,0.61,-0.37,-0.37,0,*46
1493838458.67,838,14.19,73944.8,0.61,-0.37,-0.37,0,*49
1493838459.83,839,14.25,73944.0,0.61,-0.45,-0.45,0,*48
1493838460.99,840,14.19,73940.0,0.61,-0.37,-0.37,0,*46
1493838462.18,841,14.19,73938.3,0.63,-0.45,-0.37,0,*40
1493838463.36,842,14.19,73940.5,0.63,-0.45,-0.37,0,*43
1493838464.55,843,14.19,73950.3,0.63,-0.49,-0.37,0,*4E
1493838465.73,844,14.19,73940.5,0.63,-0.45,-0.37,0,*45
1493838466.92,845,14.19,73936.0,0.63,-0.45,-0.37,0,*44
1493838468.1,846,14.19,73934.5,0.63,-0.45,-0.45,0,*42
1493838469.29,847,14.19,73934.8,0.63,-0.57,-0.45,0,*40
1493838470.47,848,14.19,73934.0,0.63,-0.49,-0.45,0,*40
1493838471.65,849,14.19,73932.5,0.63,-0.49,-0.45,0,*41
1493838472.83,850,14.19,73930.5,0.63,-0.45,-0.45,0,*45
1493838474.02,851,14.19,73930.0,0.63,-0.37,-0.45,0,*41
1493838475.2,852,14.19,73930.3,0.63,-0.45,-0.45,0,*47
1493838476.38,853,14.19,73928.5,0.63,-0.49,-0.45,0,*4A
1493838477.56,854,14.19,73926.0,0.63,-0.49,-0.49,0,*41
1493838478.75,855,14.19,73928.5,0.63,-0.45,-0.45,0,*40
1493838479.93,856,14.19,73924.3,0.63,-0.37,-0.45,0,*46
1493838481.11,857,14.19,73930.3,0.63,-0.45,-0.45,0,*42
1493838482.3,858,14.19,73930.3,0.63,-0.45,-0.45,0,*4D
1493838483.48,859,14.19,73924.5,0.63,-0.45,-0.37,0,*49
1493838484.66,860,14.19,73928.3,0.63,-0.45,-0.45,0,*46
1493838485.85,861,14.19,73926.8,0.63,-0.49,-0.49,0,*47
1493838487.03,862,14.19,73926.3,0.63,-0.45,-0.45,0,*44
1493838488.21,863,14.25,73934.3,0.63,-0.49,-0.57,0,*4A
1493838489.39,864,14.19,73934.3,0.63,-0.49,-0.57,0,*4D
1493838490.57,865,14.19,73930.5,0.63,-0.49,-0.49,0,*43
1493838491.76,866,14.19,73932.0,0.63,-0.49,-0.45,0,*4C
1493838492.94,867,14.19,73928.0,0.63,-0.57,-0.45,0,*42
1493838494.12,868,14.19,73930.5,0.63,-0.49,-0.45,0,*42
1493838495.3,869,14.19,73930.8,0.63,-0.49,-0.45,0,*43
1493838496.47,870,14.19,73922.0,0.65,-0.41,-0.41,0,*41
1493838497.65,871,14.19,73922.3,0.63,-0.49,-0.37,0,*4F
1493838498.84,872,14.19,73920.8,0.63,-0.57,-0.49,0,*4A
1493838500.02,873,14.19,73916.0,0.63,-0.45,-0.57,0,*47
1493838501.2,874,14.19,73912.5,0.63,-0.49,-0.57,0,*4C
1493838502.38,875,14.19,73918.5,0.63,-0.49,-0.57,0,*4D
1493838503.56,876,14.25,73912.5,0.63,-0.45,-0.57,0,*42
1493838504.75,877,14.25,73918.0,0.63,-0.49,-0.49,0,*40
1493838505.93,878,14.19,73916.0,0.63,-0.49,-0.49,0,*4F
1493838507.12,879,14.19,73918.5,0.63,-0.57,-0.49,0,*41
1493838508.3,880,14.19,73924.5,0.63,-0.49,-0.49,0,*48
1493838509.46,881,14.19,73920.3,0.61,-0.45,-0.45,0,*4B
1493838510.62,882,14.19,73922.8,0.61,-0.57,-0.37,0,*4E
1493838511.78,883,14.19,73926.5,0.61,-0.45,-0.45,0,*49